Weather Roundup
Issued by NWS Chicago, IL

Home | Current Version | Previous Version | Text Only | Print | Product List | Glossary On
Versions: 1 2 3 4 5 6 7 8 9 10 11 12 13 14 15 16 17 18 19 20 21 22 23 24 25 26 27 28 29 30 31 32 33 34 35 36 37 38 39 40 41 42 43 44 45 46 47 48 49 50
000
NZUS59 KLOT 250203
HRRLOT

CHICAGO AREA WEATHER ROUNDUP
NATIONAL WEATHER SERVICE CHICAGO/ROMEOVILLE IL
900 PM CDT SAT SEP 24 2016

NOTE: "FAIR" INDICATES FEW OR NO CLOUDS BELOW 12,000 FEET WITH NO
SIGNIFICANT WEATHER AND/OR OBSTRUCTIONS TO VISIBILITY.

* THESE STATIONS ARE NOT UNDER NWS QUALITY CONTROL. THEY ALSO MAY NOT
  REPORT WEATHER SUCH AS PRECIPITATION OR FOG.

ILZ005-006-012>014-019>023-250300-
NORTHEAST ILLINOIS

CITY           SKY/WX    TMP DP  RH WIND       PRES   REMARKS
OHARE          CLEAR     68  63  84 NE5       30.13R
MIDWAY         CLEAR     72  64  76 NE8       30.12R
AURORA         CLEAR     68  63  84 NE6       30.13R
LANSING*       CLEAR     70  67  90 E3        30.12R
WAUKEGAN       CLEAR     67  63  87 E5        30.14R
DUPAGE AIRPORT CLEAR     66  62  87 NE5       30.13R
WHEELING       CLEAR     67  63  87 E5        30.14S
KANKAKEE*      CLEAR     69  65  86 E6        30.12R
NORTHERLY ISL    N/A     70  65  84 E10         N/A
$$

WIZ051-052-058>065-066-070>072-250300-
SOUTHEAST WISCONSIN

CITY           SKY/WX    TMP DP  RH WIND       PRES   REMARKS
MILWAUKEE      PTCLDY    66  60  81 E7        30.16R
KENOSHA*       MOCLDY    64  61  90 E5        30.16R
RACINE*        CLOUDY    68  61  78 E8        30.17R
WAUKESHA       MOCLDY    61  57  88 E5        30.18R
WEST BEND      CLOUDY    61  55  82 CALM      30.18R
$$

INZ001>003-010>013-019-020-250300-
NORTHWEST INDIANA

CITY           SKY/WX    TMP DP  RH WIND       PRES   REMARKS
GARY*          CLEAR     70  66  88 E7        30.13R
MICHIGAN CITY* NOT AVBL
RENSSELAER*    NOT AVBL
VALPARAISO     CLEAR     66  62  87 E5        30.14R
$$

LMZ740>746-250300-
SOUTHERN LAKE MICHIGAN

STATION/POSITION TIME  SKY/WX   TEMP WIND        PRES    VSBY
                                AIR  DIR/SP/G
                 (UTC)          (F)  (DEG/KT/KT) (MB)    (MI)
HARRISON CRIB    0100            72   80/ 15/ 16   N/A
BURNHAM HARBOR   0200            70   70/ 10/ 10   N/A
CALUMET HARBOR   0100            70   50/  6/  8 1019.2S
BURNS HARBOR     0111            67   90/  7/ 10 1020.3R
MICHIGAN CITY    0100            70   50/  7/  8   N/A
$$

ABBREVIATIONS USED IN REMARKS
   TC - TEMPERATURE IN CELSIUS
  WCI - WIND CHILL INDEX
   HX - HEAT INDEX
  VSB - VISIBILITY
$$



USA.gov is the U.S. government's official web portal to all federal, state and local government web resources and services.